QPF
0.04 0.03 0.03 0.04 0.04 0.03 0.05 0.08 0.06 0.04 0.05 0.05 0.06 0.05 0.06 0.06 0.05 0.04 0.02 0.02 0.01 0.01 0.01 0.01 0.01 0.01 0.00 0.01 0.01 0.02 0.02 0.01 0.01 0.00 0.00 0.00 0.01 0.01 0.01 0.01 0.00 0.00 0.00
0.02 0.02 0.02 0.03 0.05 0.05 0.05 0.06 0.04 0.04 0.05 0.04 0.03 0.04 0.06 0.08 0.07 0.05 0.03 0.02 0.01 0.01 0.01 0.01 0.01 0.01 0.01 0.00 0.00 0.01 0.01 0.01 0.01 0.00 0.00 0.00 0.00 0.00 0.01 0.01 0.00 0.00 0.00
0.03 0.02 0.02 0.02 0.04 0.03 0.04 0.05 0.04 0.04 0.05 0.05 0.04 0.04 0.05 0.06 0.07 0.04 0.03 0.01 0.01 0.02 0.02 0.02 0.02 0.01 0.01 0.01 0.01 0.01 0.01 0.01 0.01 0.01 0.01 0.00 0.00 0.00 0.00 0.00 0.00 0.01 0.01
0.03 0.02 0.02 0.01 0.02 0.03 0.07 0.05 0.04 0.04 0.06 0.05 0.05 0.05 0.04 0.05 0.04 0.03 0.03 0.02 0.02 0.02 0.03 0.03 0.03 0.02 0.02 0.03 0.03 0.03 0.02 0.02 0.01 0.01 0.01 0.00 0.00 0.00 0.00 0.00 0.00 0.00 0.00
0.04 0.03 0.02 0.02 0.02 0.02 0.03 0.03 0.03 0.03 0.05 0.04 0.04 0.05 0.05 0.04 0.04 0.04 0.06 0.06 0.05 0.04 0.05 0.05 0.04 0.03 0.03 0.05 0.06 0.05 0.05 0.05 0.04 0.02 0.01 0.01 0.01 0.01 0.00 0.01 0.01 0.01 0.00
0.05 0.04 0.03 0.03 0.03 0.03 0.02 0.03 0.03 0.03 0.04 0.04 0.05 0.04 0.04 0.04 0.04 0.04 0.04 0.06 0.06 0.06 0.08 0.10 0.05 0.03 0.03 0.05 0.06 0.05 0.06 0.06 0.05 0.04 0.03 0.02 0.02 0.02 0.01 0.01 0.01 0.01 0.01
0.06 0.05 0.04 0.04 0.03 0.03 0.03 0.02 0.02 0.03 0.03 0.05 0.06 0.05 0.05 0.05 0.05 0.05 0.05 0.06 0.08 0.08 0.08 0.06 0.05 0.04 0.03 0.03 0.03 0.04 0.06 0.07 0.07 0.05 0.05 0.04 0.05 0.04 0.03 0.03 0.02 0.01 0.01
0.06 0.04 0.04 0.04 0.05 0.04 0.03 0.03 0.02 0.02 0.03 0.04 0.05 0.05 0.03 0.05 0.07 0.05 0.07 0.10 0.11 0.09 0.09 0.08 0.07 0.07 0.06 0.05 0.03 0.03 0.04 0.06 0.07 0.06 0.05 0.04 0.03 0.03 0.04 0.04 0.04 0.03 0.02
0.06 0.04 0.03 0.04 0.04 0.04 0.03 0.03 0.03 0.03 0.04 0.04 0.05 0.06 0.04 0.02 0.03 0.06 0.09 0.10 0.12 0.10 0.10 0.08 0.07 0.07 0.06 0.06 0.05 0.02 0.02 0.02 0.03 0.05 0.05 0.04 0.03 0.03 0.02 0.03 0.04 0.04 0.03
0.08 0.06 0.04 0.04 0.05 0.05 0.05 0.05 0.05 0.05 0.04 0.04 0.04 0.05 0.06 0.05 0.04 0.04 0.05 0.10 0.12 0.12 0.10 0.08 0.07 0.07 0.09 0.10 0.08 0.05 0.02 0.02 0.02 0.04 0.05 0.04 0.03 0.03 0.02 0.02 0.03 0.04 0.04
0.07 0.07 0.05 0.05 0.07 0.07 0.08 0.07 0.06 0.06 0.06 0.05 0.04 0.04 0.05 0.05 0.05 0.05 0.03 0.05 0.10 0.11 0.10 0.11 0.11 0.10 0.12 0.13 0.12 0.08 0.05 0.05 0.04 0.04 0.05 0.05 0.05 0.04 0.03 0.03 0.05 0.06 0.06
0.06 0.07 0.07 0.06 0.06 0.06 0.06 0.06 0.05 0.06 0.06 0.06 0.04 0.05 0.05 0.04 0.05 0.05 0.04 0.02 0.05 0.08 0.10 0.13 0.15 0.15 0.14 0.11 0.08 0.07 0.09 0.11 0.08 0.05 0.05 0.05 0.06 0.05 0.04 0.03 0.04 0.05 0.05
0.08 0.10 0.08 0.05 0.05 0.05 0.04 0.04 0.05 0.06 0.07 0.06 0.05 0.04 0.04 0.05 0.06 0.07 0.06 0.03 0.03 0.04 0.08 0.09 0.09 0.12 0.14 0.15 0.15 0.16 0.15 0.12 0.09 0.06 0.06 0.06 0.05 0.05 0.05 0.05 0.04 0.04 0.04
0.08 0.07 0.07 0.06 0.06 0.06 0.05 0.06 0.08 0.07 0.06 0.06 0.05 0.05 0.05 0.05 0.06 0.07 0.08 0.07 0.05 0.04 0.06 0.08 0.08 0.08 0.11 0.14 0.14 0.15 0.16 0.17 0.14 0.10 0.07 0.05 0.04 0.04 0.04 0.04 0.03 0.03 0.03
0.06 0.06 0.07 0.08 0.06 0.04 0.06 0.08 0.06 0.05 0.04 0.04 0.04 0.04 0.05 0.05 0.05 0.05 0.06 0.10 0.10 0.07 0.06 0.07 0.09 0.10 0.11 0.14 0.15 0.15 0.15 0.19 0.16 0.10 0.07 0.06 0.06 0.05 0.04 0.03 0.02 0.02 0.02
0.06 0.07 0.09 0.07 0.06 0.05 0.06 0.07 0.07 0.06 0.05 0.04 0.04 0.05 0.04 0.04 0.04 0.04 0.05 0.07 0.10 0.09 0.06 0.04 0.05 0.05 0.06 0.07 0.10 0.10 0.11 0.14 0.12 0.11 0.10 0.09 0.08 0.07 0.05 0.04 0.03 0.03 0.02
0.05 0.04 0.06 0.06 0.06 0.07 0.08 0.09 0.09 0.08 0.07 0.05 0.05 0.07 0.05 0.05 0.05 0.04 0.05 0.06 0.06 0.07 0.05 0.03 0.03 0.03 0.05 0.06 0.07 0.08 0.08 0.08 0.09 0.10 0.11 0.11 0.10 0.08 0.07 0.06 0.06 0.06 0.06
0.04 0.04 0.05 0.06 0.07 0.07 0.08 0.07 0.06 0.07 0.08 0.08 0.10 0.12 0.10 0.09 0.08 0.06 0.06 0.06 0.05 0.04 0.04 0.04 0.03 0.03 0.04 0.03 0.04 0.05 0.06 0.06 0.08 0.11 0.12 0.13 0.13 0.11 0.09 0.09 0.08 0.07 0.06
0.03 0.03 0.03 0.04 0.06 0.07 0.06 0.05 0.04 0.05 0.07 0.10 0.12 0.13 0.13 0.11 0.09 0.08 0.07 0.07 0.06 0.05 0.06 0.05 0.04 0.03 0.03 0.03 0.04 0.05 0.06 0.07 0.08 0.11 0.13 0.14 0.13 0.12 0.11 0.09 0.07 0.05 0.05
0.02 0.02 0.03 0.04 0.07 0.08 0.07 0.06 0.07 0.07 0.08 0.11 0.16 0.18 0.17 0.14 0.12 0.11 0.10 0.09 0.09 0.08 0.07 0.08 0.07 0.08 0.09 0.08 0.08 0.08 0.08 0.07 0.07 0.08 0.09 0.09 0.08 0.08 0.07 0.06 0.05 0.05 0.05
0.03 0.02 0.02 0.03 0.05 0.07 0.08 0.10 0.10 0.09 0.09 0.13 0.17 0.19 0.19 0.17 0.15 0.12 0.11 0.10 0.10 0.10 0.09 0.09 0.09 0.10 0.11 0.12 0.12 0.11 0.10 0.09 0.08 0.07 0.06 0.06 0.07 0.06 0.06 0.06 0.06 0.06 0.06
0.03 0.05 0.05 0.06 0.07 0.07 0.10 0.10 0.06 0.06 0.08 0.12 0.15 0.15 0.14 0.12 0.10 0.09 0.08 0.07 0.07 0.08 0.09 0.08 0.07 0.06 0.06 0.06 0.06 0.06 0.07 0.07 0.09 0.11 0.09 0.08 0.08 0.08 0.06 0.05 0.06 0.05 0.06
0.04 0.06 0.07 0.06 0.07 0.09 0.11 0.07 0.05 0.04 0.05 0.05 0.04 0.05 0.05 0.04 0.04 0.04 0.06 0.05 0.04 0.03 0.03 0.03 0.03 0.03 0.03 0.03 0.03 0.04 0.04 0.05 0.07 0.10 0.10 0.12 0.12 0.12 0.10 0.09 0.09 0.07 0.07
0.06 0.06 0.06 0.05 0.06 0.06 0.06 0.04 0.03 0.03 0.02 0.02 0.01 0.01 0.01 0.01 0.02 0.03 0.03 0.02 0.02 0.02 0.02 0.02 0.02 0.01 0.01 0.01 0.01 0.02 0.03 0.04 0.05 0.06 0.08 0.11 0.10 0.09 0.09 0.10 0.11 0.10 0.10
0.05 0.04 0.04 0.04 0.04 0.05 0.06 0.05 0.04 0.02 0.02 0.02 0.01 0.01 0.01 0.01 0.02 0.03 0.03 0.03 0.02 0.02 0.03 0.03 0.03 0.02 0.02 0.02 0.02 0.02 0.02 0.03 0.03 0.04 0.05 0.06 0.08 0.09 0.09 0.08 0.08 0.07 0.06
0.04 0.03 0.03 0.03 0.02 0.03 0.03 0.03 0.02 0.02 0.01 0.01 0.01 0.01 0.01 0.01 0.01 0.02 0.02 0.04 0.03 0.02 0.03 0.04 0.04 0.04 0.04 0.04 0.04 0.03 0.03 0.03 0.04 0.05 0.06 0.08 0.09 0.09 0.10 0.08 0.06 0.05 0.04
MSLP
1018.22 1018.30 1018.31 1018.29 1018.27 1018.26 1018.28 1018.34 1018.43 1018.54 1018.66 1018.77 1018.87 1018.97 1019.07 1019.19 1019.33 1019.50 1019.69 1019.89 1020.09 1020.26 1020.41 1020.52 1020.62 1020.71 1020.81 1020.91 1021.04 1021.19 1021.34 1021.51 1021.66 1021.81 1021.94 1022.05 1022.14 1022.23 1022.30 1022.36 1022.41 1022.44 1022.46
1018.20 1018.28 1018.31 1018.30 1018.28 1018.28 1018.31 1018.38 1018.49 1018.63 1018.78 1018.93 1019.07 1019.19 1019.31 1019.42 1019.54 1019.67 1019.81 1019.96 1020.11 1020.27 1020.43 1020.57 1020.70 1020.83 1020.95 1021.07 1021.18 1021.30 1021.41 1021.53 1021.64 1021.76 1021.87 1021.98 1022.09 1022.20 1022.30 1022.38 1022.44 1022.49 1022.52
1018.13 1018.22 1018.27 1018.29 1018.30 1018.33 1018.38 1018.48 1018.61 1018.78 1018.97 1019.16 1019.33 1019.48 1019.60 1019.69 1019.76 1019.83 1019.89 1019.97 1020.07 1020.18 1020.33 1020.48 1020.65 1020.81 1020.97 1021.11 1021.23 1021.33 1021.42 1021.50 1021.58 1021.66 1021.76 1021.87 1021.99 1022.11 1022.23 1022.34 1022.42 1022.49 1022.54
1018.04 1018.15 1018.23 1018.29 1018.34 1018.41 1018.49 1018.62 1018.78 1018.98 1019.19 1019.41 1019.62 1019.78 1019.89 1019.96 1019.97 1019.96 1019.93 1019.91 1019.93 1019.99 1020.09 1020.24 1020.43 1020.63 1020.82 1020.99 1021.14 1021.25 1021.33 1021.39 1021.45 1021.52 1021.60 1021.71 1021.83 1021.96 1022.10 1022.22 1022.33 1022.42 1022.49
1017.95 1018.09 1018.21 1018.32 1018.41 1018.52 1018.63 1018.78 1018.96 1019.17 1019.40 1019.64 1019.86 1020.03 1020.14 1020.17 1020.13 1020.04 1019.91 1019.80 1019.72 1019.70 1019.75 1019.88 1020.07 1020.28 1020.51 1020.72 1020.90 1021.03 1021.12 1021.19 1021.25 1021.31 1021.39 1021.49 1021.62 1021.75 1021.89 1022.02 1022.14 1022.24 1022.32
1017.87 1018.04 1018.20 1018.36 1018.50 1018.63 1018.77 1018.92 1019.10 1019.31 1019.54 1019.78 1020.01 1020.18 1020.29 1020.30 1020.22 1020.07 1019.87 1019.66 1019.49 1019.39 1019.38 1019.46 1019.62 1019.84 1020.09 1020.32 1020.53 1020.69 1020.81 1020.90 1020.97 1021.05 1021.13 1021.24 1021.36 1021.49 1021.62 1021.74 1021.84 1021.93 1022.01
1017.80 1018.00 1018.20 1018.40 1018.58 1018.73 1018.87 1019.01 1019.16 1019.35 1019.56 1019.80 1020.02 1020.21 1020.32 1020.33 1020.25 1020.06 1019.82 1019.55 1019.30 1019.13 1019.05 1019.07 1019.20 1019.40 1019.64 1019.88 1020.11 1020.30 1020.45 1020.56 1020.66 1020.75 1020.84 1020.95 1021.06 1021.18 1021.28 1021.38 1021.45 1021.51 1021.57
1017.72 1017.95 1018.20 1018.44 1018.64 1018.80 1018.92 1019.03 1019.14 1019.28 1019.46 1019.68 1019.90 1020.10 1020.24 1020.29 1020.22 1020.05 1019.80 1019.51 1019.22 1018.99 1018.86 1018.82 1018.90 1019.05 1019.27 1019.50 1019.72 1019.92 1020.09 1020.22 1020.34 1020.45 1020.55 1020.66 1020.77 1020.86 1020.93 1020.98 1021.00 1021.01 1021.02
1017.62 1017.89 1018.18 1018.45 1018.66 1018.82 1018.92 1018.98 1019.04 1019.13 1019.27 1019.46 1019.68 1019.90 1020.09 1020.19 1020.18 1020.06 1019.85 1019.58 1019.29 1019.04 1018.86 1018.78 1018.80 1018.90 1019.07 1019.26 1019.46 1019.65 1019.81 1019.96 1020.08 1020.20 1020.31 1020.42 1020.51 1020.57 1020.60 1020.60 1020.56 1020.51 1020.47
1017.51 1017.82 1018.13 1018.43 1018.65 1018.80 1018.87 1018.89 1018.89 1018.93 1019.03 1019.20 1019.42 1019.67 1019.90 1020.07 1020.15 1020.11 1019.97 1019.75 1019.50 1019.27 1019.08 1018.97 1018.94 1018.99 1019.10 1019.25 1019.40 1019.56 1019.70 1019.83 1019.95 1020.06 1020.17 1020.27 1020.34 1020.38 1020.36 1020.31 1020.21 1020.09 1019.98
1017.38 1017.71 1018.06 1018.37 1018.61 1018.75 1018.80 1018.79 1018.75 1018.75 1018.81 1018.96 1019.18 1019.45 1019.73 1019.97 1020.13 1020.18 1020.13 1020.00 1019.82 1019.63 1019.46 1019.35 1019.30 1019.32 1019.38 1019.47 1019.58 1019.68 1019.78 1019.88 1019.98 1020.08 1020.18 1020.26 1020.31 1020.32 1020.27 1020.16 1020.01 1019.84 1019.67
1017.23 1017.59 1017.96 1018.30 1018.55 1018.69 1018.74 1018.71 1018.66 1018.62 1018.66 1018.79 1019.01 1019.29 1019.60 1019.90 1020.13 1020.26 1020.30 1020.26 1020.16 1020.04 1019.93 1019.84 1019.81 1019.81 1019.85 1019.90 1019.96 1020.02 1020.08 1020.14 1020.20 1020.27 1020.34 1020.41 1020.44 1020.42 1020.35 1020.21 1020.03 1019.81 1019.59
1017.07 1017.45 1017.85 1018.20 1018.47 1018.63 1018.69 1018.67 1018.62 1018.58 1018.61 1018.73 1018.94 1019.22 1019.54 1019.86 1020.12 1020.32 1020.43 1020.47 1020.46 1020.42 1020.38 1020.36 1020.37 1020.40 1020.44 1020.49 1020.52 1020.55 1020.56 1020.58 1020.61 1020.64 1020.69 1020.72 1020.74 1020.71 1020.63 1020.48 1020.27 1020.03 1019.78
1016.92 1017.31 1017.72 1018.09 1018.38 1018.57 1018.67 1018.68 1018.65 1018.64 1018.68 1018.79 1018.99 1019.25 1019.55 1019.86 1020.12 1020.34 1020.49 1020.58 1020.64 1020.68 1020.74 1020.80 1020.89 1020.98 1021.07 1021.14 1021.18 1021.20 1021.19 1021.18 1021.17 1021.17 1021.18 1021.20 1021.20 1021.17 1021.08 1020.94 1020.74 1020.49 1020.24
1016.81 1017.19 1017.60 1017.98 1018.30 1018.53 1018.66 1018.73 1018.76 1018.78 1018.85 1018.97 1019.15 1019.39 1019.65 1019.90 1020.13 1020.32 1020.47 1020.59 1020.70 1020.82 1020.95 1021.12 1021.30 1021.49 1021.66 1021.79 1021.87 1021.90 1021.90 1021.87 1021.83 1021.81 1021.79 1021.79 1021.79 1021.75 1021.68 1021.56 1021.37 1021.15 1020.92
1016.75 1017.11 1017.51 1017.90 1018.24 1018.50 1018.70 1018.83 1018.92 1019.01 1019.11 1019.25 1019.42 1019.62 1019.83 1020.02 1020.18 1020.31 1020.43 1020.54 1020.67 1020.83 1021.05 1021.31 1021.60 1021.89 1022.16 1022.38 1022.53 1022.60 1022.62 1022.59 1022.55 1022.51 1022.47 1022.46 1022.44 1022.42 1022.37 1022.27 1022.12 1021.94 1021.74
1016.78 1017.12 1017.50 1017.88 1018.24 1018.54 1018.78 1018.98 1019.15 1019.30 1019.46 1019.63 1019.80 1019.97 1020.12 1020.24 1020.32 1020.38 1020.43 1020.50 1020.62 1020.81 1021.07 1021.41 1021.80 1022.20 1022.57 1022.88 1023.11 1023.25 1023.31 1023.30 1023.26 1023.21 1023.16 1023.14 1023.12 1023.11 1023.07 1023.01 1022.91 1022.77 1022.62
1016.93 1017.26 1017.61 1017.99 1018.34 1018.67 1018.96 1019.21 1019.45 1019.67 1019.89 1020.09 1020.28 1020.43 1020.54 1020.59 1020.59 1020.57 1020.54 1020.56 1020.65 1020.83 1021.12 1021.51 1021.96 1022.44 1022.90 1023.30 1023.61 1023.81 1023.92 1023.94 1023.92 1023.86 1023.82 1023.79 1023.77 1023.76 1023.75 1023.72 1023.66 1023.58 1023.47
1017.23 1017.54 1017.88 1018.24 1018.59 1018.93 1019.24 1019.54 1019.83 1020.11 1020.38 1020.63 1020.84 1020.99 1021.07 1021.08 1021.02 1020.93 1020.84 1020.79 1020.83 1020.99 1021.27 1021.67 1022.16 1022.68 1023.20 1023.66 1024.03 1024.29 1024.43 1024.49 1024.48 1024.44 1024.40 1024.36 1024.35 1024.35 1024.36 1024.36 1024.34 1024.29 1024.23
1017.68 1017.98 1018.32 1018.66 1019.01 1019.34 1019.66 1019.98 1020.30 1020.62 1020.93 1021.22 1021.45 1021.62 1021.70 1021.69 1021.60 1021.47 1021.32 1021.23 1021.22 1021.33 1021.58 1021.95 1022.43 1022.96 1023.49 1023.98 1024.38 1024.67 1024.85 1024.93 1024.94 1024.92 1024.88 1024.85 1024.84 1024.85 1024.87 1024.89 1024.89 1024.88 1024.86
1018.26 1018.58 1018.92 1019.26 1019.58 1019.90 1020.21 1020.53 1020.85 1021.19 1021.52 1021.83 1022.09 1022.28 1022.38 1022.38 1022.29 1022.14 1021.98 1021.84 1021.79 1021.85 1022.05 1022.37 1022.81 1023.30 1023.81 1024.28 1024.68 1024.97 1025.17 1025.27 1025.29 1025.28 1025.25 1025.23 1025.23 1025.24 1025.27 1025.30 1025.32 1025.34 1025.33
1018.92 1019.29 1019.64 1019.98 1020.29 1020.57 1020.85 1021.14 1021.44 1021.76 1022.09 1022.42 1022.70 1022.92 1023.05 1023.09 1023.02 1022.89 1022.73 1022.58 1022.50 1022.51 1022.64 1022.90 1023.26 1023.69 1024.14 1024.56 1024.93 1025.21 1025.39 1025.50 1025.53 1025.53 1025.51 1025.50 1025.51 1025.53 1025.56 1025.60 1025.63 1025.65 1025.65
1019.62 1020.03 1020.42 1020.75 1021.04 1021.30 1021.53 1021.77 1022.03 1022.31 1022.62 1022.94 1023.23 1023.48 1023.65 1023.73 1023.71 1023.62 1023.48 1023.34 1023.24 1023.22 1023.30 1023.48 1023.76 1024.10 1024.47 1024.82 1025.13 1025.37 1025.54 1025.64 1025.68 1025.69 1025.68 1025.68 1025.69 1025.72 1025.75 1025.78 1025.81 1025.82 1025.82
1020.28 1020.75 1021.15 1021.50 1021.77 1021.98 1022.17 1022.35 1022.55 1022.79 1023.06 1023.35 1023.65 1023.91 1024.12 1024.24 1024.28 1024.24 1024.15 1024.04 1023.95 1023.91 1023.94 1024.06 1024.25 1024.50 1024.78 1025.06 1025.30 1025.49 1025.63 1025.71 1025.75 1025.76 1025.77 1025.78 1025.79 1025.82 1025.85 1025.87 1025.89 1025.88 1025.86
1020.84 1021.35 1021.78 1022.12 1022.38 1022.56 1022.70 1022.83 1022.97 1023.15 1023.38 1023.65 1023.93 1024.21 1024.44 1024.61 1024.71 1024.73 1024.69 1024.61 1024.54 1024.49 1024.50 1024.56 1024.69 1024.86 1025.06 1025.26 1025.44 1025.58 1025.68 1025.74 1025.77 1025.79 1025.80 1025.81 1025.83 1025.85 1025.87 1025.88 1025.88 1025.85 1025.80
1021.26 1021.79 1022.23 1022.58 1022.82 1022.98 1023.08 1023.17 1023.27 1023.41 1023.60 1023.84 1024.11 1024.39 1024.64 1024.85 1024.99 1025.06 1025.07 1025.04 1024.99 1024.95 1024.94 1024.97 1025.05 1025.16 1025.29 1025.43 1025.55 1025.65 1025.72 1025.76 1025.78 1025.79 1025.80 1025.81 1025.83 1025.84 1025.85 1025.84 1025.81 1025.75 1025.68
Thickness
5746 5745 5745 5744 5744 5743 5743 5742 5742 5741 5741 5740 5739 5738 5736 5735 5733 5732 5731 5729 5727 5726 5725 5723 5722 5721 5719 5717 5716 5715 5713 5712 5711 5710 5709 5708 5707 5706 5705 5704 5703 5702 5701
5747 5746 5745 5745 5744 5744 5744 5743 5742 5741 5740 5740 5739 5738 5737 5735 5733 5732 5731 5729 5727 5726 5725 5724 5722 5720 5719 5717 5716 5714 5713 5712 5711 5709 5708 5707 5707 5706 5705 5704 5703 5702 5701
5749 5748 5746 5745 5745 5745 5744 5743 5742 5742 5740 5740 5739 5738 5737 5735 5733 5732 5731 5730 5728 5726 5725 5724 5723 5721 5719 5718 5716 5715 5714 5712 5711 5710 5708 5707 5706 5705 5705 5704 5703 5701 5700
5749 5748 5747 5746 5746 5745 5745 5743 5742 5740 5739 5739 5738 5738 5737 5735 5734 5733 5731 5730 5729 5727 5726 5725 5724 5722 5720 5719 5717 5716 5714 5713 5712 5710 5709 5708 5707 5705 5704 5703 5702 5701 5700
5749 5748 5747 5746 5746 5745 5745 5744 5742 5741 5739 5738 5738 5738 5737 5736 5736 5734 5732 5731 5730 5728 5727 5726 5724 5723 5721 5720 5718 5717 5715 5714 5713 5711 5710 5708 5707 5706 5705 5703 5702 5701 5699
5749 5748 5747 5746 5746 5745 5744 5743 5742 5741 5740 5738 5739 5738 5737 5737 5737 5735 5734 5732 5731 5730 5728 5726 5725 5723 5722 5721 5720 5718 5717 5715 5714 5712 5711 5709 5708 5706 5705 5704 5702 5701 5699
5749 5748 5747 5746 5745 5744 5744 5743 5741 5739 5738 5738 5734 5732 5734 5736 5736 5736 5735 5734 5732 5731 5729 5727 5726 5725 5724 5722 5721 5720 5718 5717 5715 5713 5712 5710 5709 5707 5706 5704 5702 5701 5699
5748 5748 5746 5746 5745 5744 5743 5742 5741 5737 5737 5737 5732 5726 5723 5726 5732 5737 5736 5735 5734 5732 5730 5729 5727 5726 5724 5723 5722 5721 5719 5718 5716 5715 5713 5712 5710 5708 5707 5705 5703 5701 5700
5749 5748 5747 5746 5745 5744 5742 5742 5741 5738 5734 5735 5735 5729 5720 5717 5724 5731 5734 5735 5734 5733 5731 5730 5728 5727 5725 5723 5722 5721 5720 5719 5717 5716 5714 5712 5711 5709 5707 5705 5704 5702 5700
5749 5748 5747 5746 5745 5744 5743 5743 5742 5740 5737 5733 5734 5734 5732 5729 5722 5721 5727 5731 5732 5732 5731 5730 5729 5727 5725 5723 5722 5722 5720 5719 5718 5716 5715 5713 5711 5709 5707 5706 5704 5702 5701
5749 5748 5747 5747 5745 5744 5743 5742 5741 5740 5738 5735 5733 5732 5731 5729 5728 5722 5719 5723 5727 5730 5730 5730 5728 5727 5725 5724 5722 5721 5721 5719 5718 5716 5715 5713 5711 5709 5707 5705 5704 5702 5700
5748 5748 5748 5747 5746 5745 5743 5742 5741 5740 5738 5737 5735 5733 5730 5727 5725 5722 5719 5719 5720 5724 5728 5729 5728 5727 5726 5724 5722 5721 5720 5719 5717 5716 5714 5712 5710 5708 5706 5704 5703 5701 5699
5747 5747 5747 5747 5746 5745 5744 5742 5740 5739 5737 5736 5734 5733 5732 5730 5729 5725 5720 5718 5717 5721 5724 5726 5726 5725 5724 5722 5721 5720 5719 5717 5715 5714 5712 5710 5708 5705 5704 5702 5701 5699 5697
5748 5747 5747 5746 5745 5744 5742 5741 5739 5738 5736 5735 5734 5732 5731 5730 5729 5726 5722 5718 5713 5714 5716 5719 5721 5722 5721 5720 5719 5717 5716 5714 5712 5710 5708 5706 5704 5701 5699 5698 5696 5694 5693
5748 5746 5745 5744 5743 5741 5740 5739 5737 5735 5734 5733 5731 5730 5729 5728 5727 5726 5724 5721 5713 5707 5708 5713 5715 5717 5716 5715 5714 5713 5711 5710 5708 5706 5704 5701 5699 5696 5694 5692 5690 5688 5687
5746 5745 5743 5742 5740 5739 5738 5736 5734 5733 5731 5730 5729 5727 5725 5725 5724 5723 5722 5720 5717 5711 5705 5707 5709 5710 5710 5710 5708 5707 5705 5703 5701 5699 5698 5696 5693 5690 5687 5685 5683 5681 5679
5743 5741 5740 5739 5737 5736 5735 5733 5731 5730 5728 5727 5726 5723 5722 5721 5719 5718 5717 5715 5712 5709 5703 5702 5704 5704 5703 5702 5701 5699 5698 5695 5693 5691 5689 5687 5684 5681 5679 5676 5674 5671 5669
5740 5738 5737 5735 5734 5732 5731 5729 5727 5726 5724 5722 5720 5718 5717 5716 5714 5712 5710 5708 5706 5704 5700 5695 5695 5695 5695 5694 5692 5691 5689 5687 5684 5682 5680 5678 5675 5672 5669 5666 5664 5661 5660
5736 5735 5733 5731 5729 5728 5726 5724 5723 5721 5719 5718 5715 5713 5712 5710 5708 5706 5704 5702 5700 5699 5696 5691 5688 5688 5686 5684 5682 5680 5679 5676 5674 5672 5669 5667 5664 5662 5659 5656 5653 5652 5650
5732 5730 5728 5726 5725 5723 5721 5719 5718 5716 5714 5712 5710 5708 5706 5705 5702 5700 5698 5695 5693 5691 5688 5684 5680 5678 5676 5675 5672 5668 5666 5664 5662 5660 5657 5655 5652 5650 5647 5645 5642 5641 5639
5727 5725 5722 5721 5719 5718 5716 5714 5712 5710 5708 5705 5703 5701 5700 5698 5697 5694 5691 5687 5685 5682 5679 5675 5671 5668 5666 5664 5661 5658 5655 5653 5650 5647 5644 5641 5639 5637 5634 5632 5630 5628 5626
5721 5719 5716 5714 5712 5710 5709 5708 5706 5703 5701 5697 5694 5692 5691 5689 5686 5684 5682 5679 5677 5673 5669 5666 5662 5658 5655 5653 5652 5650 5645 5642 5638 5636 5632 5628 5626 5623 5621 5619 5617 5615 5613
5714 5711 5708 5706 5703 5701 5701 5699 5698 5695 5691 5688 5686 5684 5682 5679 5676 5674 5671 5669 5666 5663 5661 5656 5652 5648 5646 5644 5642 5639 5635 5632 5628 5624 5621 5615 5612 5609 5607 5605 5603 5601 5599
5707 5704 5701 5698 5696 5694 5692 5691 5689 5686 5682 5679 5677 5674 5671 5668 5666 5664 5661 5658 5654 5652 5649 5646 5643 5639 5638 5636 5634 5631 5627 5622 5617 5614 5611 5604 5600 5597 5595 5592 5589 5587 5585
5700 5696 5692 5690 5688 5685 5685 5683 5681 5677 5673 5669 5667 5664 5661 5658 5656 5654 5651 5647 5644 5641 5638 5636 5634 5631 5628 5626 5624 5621 5616 5611 5605 5601 5598 5594 5589 5585 5582 5579 5576 5574 5571
5692 5688 5684 5681 5679 5677 5675 5674 5672 5668 5664 5660 5657 5654 5651 5648 5646 5644 5640 5637 5633 5629 5627 5625 5623 5620 5617 5615 5613 5610 5605 5599 5593 5589 5586 5583 5577 5573 5569 5566 5563 5561 5559